Location: *
(55.6049°S, 142.1985°W)
Time: 10:13:57
(UTC+00:00)

IRAS Rocket - Pass Details

Date: 12 May 2021
Orbit: 847 x 878 km, 100.1° (Epoch: 13 June)

Event Time Altitude Azimuth Distance (km) Brightness Sun altitude
Rises 14:55:57 0° 161° (SSE) 3,457 7.6 -19.1°
Reaches altitude 10° 14:58:20 10° 159° (SSE) 2,515 6.8 -18.8°
Maximum altitude 15:03:56 80° 72° (ENE) 883 4.3 -18.0°
Drops below altitude 10° 15:09:29 10° 344° (NNW) 2,495 6.6 -17.2°
Sets 15:11:51 0° 343° (NNW) 3,427 7.3 -16.9°
